Weather History for Fort Stockton, TX

Change the Weather History Date:

Saturday, March 16, 2013

  Actual Average Record
Temperature  
Mean Temperature 73 °F -  
Max Temperature 91 °F 69 °F 91 °F (2008)
Min Temperature 55 °F 44 °F 36 °F (2001)
Cooling Degree Days 8    
Growing Degree Days 23 (Base 50)    
Moisture  
Dew Point 14 °F    
Average Humidity 15    
Maximum Humidity 44    
Minimum Humidity 4    
Precipitation  
Precipitation 0.00 in - - ()
Sea Level Pressure  
Sea Level Pressure 29.69 in    
Wind  
Wind Speed 14 mph (WSW)    
Max Wind Speed 21 mph    
Max Gust Speed 30 mph    
Visibility 10 miles    
Events      
Averages and records for this station are not official NWS values.
T = Trace of Precipitation, MM = Missing Value Source: NWS Daily Summary

Daily Weather History Graph

Daily Weather History Graph

Search for Another Location

Airport:

Trip Planner

Search our weather history database for the weather conditions in past years. The results will help you decide how hot, cold, wet, or windy it might be!

Date:

Astronomy

Mar. 16, 2013 Rise Set
Actual Time 8:00 AM CDT 8:00 PM CDT
Civil Twilight 7:35 AM CDT 8:24 PM CDT
Nautical Twilight 7:07 AM CDT 8:52 PM CDT
Astronomical Twilight 6:39 AM CDT 9:21 PM CDT
Moon 10:51 AM CDT (3/16) No Moon Set
Length of Visible Light 12h 48m
Length of Day
12h 00m
Waxing Crescent, 23% of the Moon is Illuminated
Mar 16
Waxing Crescent
Mar 19
First Quarter
Mar 27
Full
Apr 2
Last Quarter
Apr 10
New

Hourly Weather History & Observations

Time (CDT) Temp. Dew Point Humidity Pressure Visibility Wind Dir Wind Speed Gust Speed Precip Events Conditions
12:53 AM 63.0 °F 37.0 °F 38% 29.80 in 10.0 mi SSE 13.8 mph - N/A   Clear
1:53 AM 60.1 °F 37.0 °F 42% 29.79 in 10.0 mi South 10.4 mph - N/A   Clear
2:53 AM 55.9 °F 34.0 °F 44% 29.77 in 10.0 mi South 10.4 mph - N/A   Clear
3:53 AM 57.9 °F 27.0 °F 31% 29.74 in 10.0 mi SSW 15.0 mph - N/A   Clear
4:53 AM 59.0 °F 24.1 °F 26% 29.72 in 10.0 mi SSW 18.4 mph - N/A   Clear
5:53 AM 59.0 °F 21.0 °F 23% 29.72 in 10.0 mi SW 16.1 mph - N/A   Clear
6:53 AM 57.0 °F 19.0 °F 23% 29.72 in 10.0 mi SW 15.0 mph - N/A   Clear
7:53 AM 60.1 °F 16.0 °F 18% 29.73 in 10.0 mi SW 17.3 mph - N/A   Clear
8:53 AM 64.9 °F 17.1 °F 16% 29.74 in 10.0 mi SW 17.3 mph - N/A   Clear
9:53 AM 73.0 °F 17.1 °F 12% 29.75 in 10.0 mi SW 17.3 mph - N/A   Clear
10:53 AM 81.0 °F 14.0 °F 8% 29.74 in 10.0 mi SW 18.4 mph - N/A   Clear
11:53 AM 86.0 °F 10.9 °F 6% 29.73 in 10.0 mi West 12.7 mph 20.7 mph N/A   Clear
12:53 PM 89.1 °F 7.0 °F 5% 29.71 in 10.0 mi WNW 18.4 mph 24.2 mph N/A   Clear
1:53 PM 91.0 °F 3.9 °F 4% 29.68 in 10.0 mi WNW 17.3 mph 27.6 mph N/A   Clear
2:53 PM 91.0 °F 3.0 °F 4% 29.65 in 10.0 mi WNW 13.8 mph 25.3 mph N/A   Unknown
3:53 PM 90.0 °F 3.0 °F 4% 29.62 in 10.0 mi NW 12.7 mph - N/A   Clear
4:53 PM 90.0 °F 3.9 °F 4% 29.59 in 10.0 mi NW 19.6 mph 29.9 mph N/A   Clear
5:53 PM 88.0 °F 3.0 °F 4% 29.58 in 10.0 mi West 20.7 mph 27.6 mph N/A   Clear
6:53 PM 87.1 °F -0.0 °F 4% 29.59 in 10.0 mi WNW 16.1 mph 25.3 mph N/A   Clear
7:53 PM 79.0 °F -0.0 °F 5% 29.61 in 10.0 mi West 6.9 mph - N/A   Clear
8:53 PM 72.0 °F 3.9 °F 7% 29.63 in 10.0 mi West 9.2 mph - N/A   Clear
9:53 PM 66.9 °F 9.0 °F 10% 29.65 in 10.0 mi SW 10.4 mph - N/A   Clear
10:53 PM 64.0 °F 8.1 °F 11% 29.64 in 10.0 mi SW 10.4 mph - N/A   Clear
11:53 PM 63.0 °F 6.1 °F 11% 29.63 in 10.0 mi SW 10.4 mph - N/A   Clear